SL-4 R/B, 68753

Orbit data source: Space-Track

SL-4 R/B, 68753 is space debris in SSO originally from a launch on Thu, 16 Apr 2026 UTC via a SOYUZ-2-1B launch vehicle from the Plesetsk Missile And Space Complex (PKMTR). Debris objects in space refer to the collection of defunct objects orbiting the Earth. Examples of debris include non-operational satellites, rocket bodies, and fragments generated from explosions, collisions, or faulty payload assembly.

Loading next visibility...
Identifier
68753, 2026-083A
Orbit
SSO
Country
Flag of CISCIS
Related business
Manufacturer
TsSKB-Progress
Mission
Operational spacecraft
Bus & Motor
BLOK-I, Unknown motor
Mass
~2,350 kg wet, 2,350 kg dry
Launch date (UTC)
2026-04-16 (1 month ago)
Launch vehicle
SOYUZ-2-1B
Launch site
Plesetsk Missile And Space Complex (PKMTR)
Object type
Payload
Rocket body
Debris
Shape & HBR
Unknown shape, 1.1 m
Radar Cross Section
RCS unknown

Expand to show TLE details & history
Last TLE update: 7 hours ago

TLE from 7 hours ago
0 SL-4 R/B
1 68753U 26083A   26138.77997936  .00002542  00000-0  10855-3 0  9990
2 68753  98.2698 287.2019 0062895 330.9193  28.8542 15.22241654  4858
Epoch: 2026-05-18T18:43Z
TLE epoch observation values (Epoch: 2026-05-18T18:43:10.216Z)
Latitude
-0.0001°
Longitude
129.94601°
Altitude
464.319 km
Speed
7.655 km/s
True Right ascension
19h 08m 48s
True Declination
0° 00' 00"
Sunlit
Object was in full shadow at epoch
Visualization orbit readout
Latitude
Unknown
Longitude
Unknown
Altitude
Unknown
Speed
Unknown
Apparent Right ascension
Unknown
Apparent Declination
Unknown
Sunlit
N/A
Visualization observer readout
Local Sidereal Time
10:08:57
Azimuth
Unknown
Elevation
Unknown
Doppler factor
Unknown
Orbital elements
Apogee altitude
539.318 km
Perigee altitude
452.847 km
Semi-major axis
6,874.219 km
Eccentricity
0.00629
Inclination
98.2698°
RAAN
287.2019°
Arg. of periapsis
330.9193°
True anomaly
29.20442°
Mean anomaly
28.8542°
Eccentric anomaly
29.02907°
Mean motion
3.8081 °/min
Orbital period
94.54 mins
BSTAR
0.00010855
Loading maneuver chart data...
Computing Atmospheric mass density...
Loading historical data...
Loading historical data...
Loading historical data...
Loading historical data...
Loading historical data...
Loading historical data...
Loading historical data...

Documentation

Showing up to 5 results
|